Weather History for Pascagoula, MS

Change the Weather History Date:

Wednesday, February 20, 2013

  Actual Average Record
Temperature  
Mean Temperature 50 °F -  
Max Temperature 60 °F 65 °F 76 °F (1952)
Min Temperature 39 °F 47 °F 29 °F (1958)
Degree Days  
Heating Degree Days 16    
Moisture  
Dew Point 28 °F    
Average Humidity 53    
Maximum Humidity 93    
Minimum Humidity 23    
Precipitation  
Precipitation 0.00 in - - ()
Sea Level Pressure  
Sea Level Pressure 30.19 in    
Wind  
Wind Speed 5 mph (NE)    
Max Wind Speed 8 mph    
Max Gust Speed -    
Visibility 10 miles    
Events      
Averages and records for this station are not official NWS values.
T = Trace of Precipitation, MM = Missing Value Source: NWS Daily Summary

Daily Weather History Graph

Daily Weather History Graph

Search for Another Location

Airport:

Trip Planner

Search our weather history database for the weather conditions in past years. The results will help you decide how hot, cold, wet, or windy it might be!

Date:

Astronomy

Feb. 20, 2013 Rise Set
Actual Time 6:29 AM CST 5:46 PM CST
Civil Twilight 6:05 AM CST 6:10 PM CST
Nautical Twilight 5:37 AM CST 6:38 PM CST
Astronomical Twilight 5:09 AM CST 7:06 PM CST
Moon 1:19 PM CST 2:37 AM CST
Length of Visible Light 12h 05m
Length of Day
11h 16m
Waxing Gibbous, 76% of the Moon is Illuminated
Feb 20
Waxing Gibbous
Feb 25
Full
Mar 4
Last Quarter
Mar 11
New
Mar 19
First Quarter

Hourly Weather History & Observations

Time (CST) Temp. Windchill Dew Point Humidity Pressure Visibility Wind Dir Wind Speed Gust Speed Precip Events Conditions
12:53 AM 39.0 °F 36.8 °F 33.1 °F 79% 30.25 in 10.0 mi North 3.5 mph - N/A   Clear
1:53 AM 39.9 °F 35.1 °F 28.9 °F 65% 30.25 in 10.0 mi North 6.9 mph - N/A   Clear
2:53 AM 39.9 °F 34.5 °F 28.0 °F 63% 30.23 in 10.0 mi North 8.1 mph - N/A   Clear
3:53 AM 39.0 °F 34.0 °F 27.0 °F 62% 30.22 in 10.0 mi North 6.9 mph - N/A   Clear
4:53 AM 39.9 °F 35.1 °F 26.1 °F 58% 30.20 in 10.0 mi NE 6.9 mph - N/A   Clear
5:53 AM 42.1 °F 37.7 °F 26.1 °F 53% 30.18 in 10.0 mi NE 6.9 mph - N/A   Clear
6:53 AM 41.0 °F 38.0 °F 27.0 °F 57% 30.23 in 10.0 mi NE 4.6 mph - N/A   Clear
7:53 AM 44.1 °F 41.5 °F 27.0 °F 51% 30.26 in 10.0 mi NNE 4.6 mph - N/A   Clear
8:53 AM 46.0 °F 42.5 °F 25.0 °F 44% 30.28 in 10.0 mi ENE 6.9 mph - N/A   Clear
10:53 AM 51.1 °F - 21.0 °F 31% 30.25 in 10.0 mi NE 4.6 mph - N/A   Clear
11:53 AM 54.0 °F - 19.0 °F 25% 30.23 in 10.0 mi Variable 5.8 mph - N/A   Clear
12:53 PM 57.0 °F - 19.0 °F 23% 30.19 in 10.0 mi East 6.9 mph - N/A   Clear
1:53 PM 57.9 °F - 21.0 °F 24% 30.15 in 10.0 mi NE 6.9 mph - N/A   Clear
2:53 PM 57.9 °F - 21.9 °F 25% 30.13 in 10.0 mi East 6.9 mph - N/A   Clear
3:53 PM 60.1 °F - 23.0 °F 24% 30.12 in 10.0 mi Variable 5.8 mph - N/A   Clear
4:53 PM 57.9 °F - 23.0 °F 26% 30.14 in 10.0 mi East 4.6 mph - N/A   Clear
5:53 PM 50.0 °F - 30.9 °F 48% 30.14 in 10.0 mi Calm Calm - N/A   Clear
6:53 PM 45.0 °F - 36.0 °F 71% 30.15 in 10.0 mi Calm Calm - N/A   Clear
7:53 PM 44.1 °F - 37.9 °F 79% 30.14 in 10.0 mi Calm Calm - N/A   Clear
9:53 PM 39.9 °F - 36.0 °F 86% 30.14 in 10.0 mi Calm Calm - N/A   Clear
10:53 PM 39.0 °F - 36.0 °F 89% 30.12 in 10.0 mi Calm Calm - N/A   Clear
11:53 PM 39.0 °F - 37.0 °F 93% 30.09 in 10.0 mi Calm Calm - N/A   Clear